Home > Weather > Rhodes > Past weeks

Flag for Greece Weather for the Past 2 Weeks in Rhodes, Rhodes, Greece

Now
63 °F

Passing clouds.


Feels Like: 63 °F
Forecast: 61 / 66 °F
Wind: 10 mph from Southeast

Location: Rhodes Airport

Current Time: Feb 14, 2016 at 11:39:37 PM

Latest Report: Feb 14, 2016 at 10:50 PM


Visibility: N/A

Pressure: 30.04 "Hg

Humidity: 88%

Dew point: 59 °F

Location of RhodesLocation

Historic Weather in Rhodes — Graph

°F

Rhodes Temperature Yesterday

Maximum temperature yesterday: 66 °F (at 12:50 PM)
Minimum temperature yesterday: 59 °F (at 12:50 AM)
Average temperature yesterday: 62 °F

High & Low Weather Summary for the Past Weeks

 TemperatureHumidityPressure
High68 °F (Feb 3, 12:50 PM)100% (Feb 3, 7:50 AM)30.33 "Hg (Feb 3, 7:50 AM)
Low45 °F (Feb 8, 6:20 AM)38% (Feb 7, 1:50 PM)29.68 "Hg (Feb 5, 6:50 PM)
Average57 °F73%30.09 "Hg
* Reported Jan 30 10:20 PM — Feb 14 10:20 PM, Rhodes, Weather by CustomWeather, © 2016

Note: Actual official high and low records may vary slightly from our data, if they occured in-between our weather recording intervals... More about our weather records

Advertising

Rhodes Weather History for the Previous 24 Hours

 ConditionsComfort  
Time TempWeatherWind HumidityBarometerVisibility
10:20 PM
Sun, Feb 14
63 °FPassing clouds.12 mph88%30.04 "HgN/A
9:50 PM63 °FPassing clouds.12 mph88%30.04 "HgN/A
9:20 PM63 °FPassing clouds.8 mph88%30.04 "HgN/A
8:50 PM63 °FPassing clouds.10 mph88%30.04 "HgN/A
8:20 PM63 °FPassing clouds.10 mph83%30.04 "HgN/A
7:50 PM63 °FPassing clouds.8 mph83%30.04 "HgN/A
7:20 PM63 °FPassing clouds.8 mph88%30.01 "HgN/A
6:50 PM63 °FPassing clouds.12 mph88%30.01 "HgN/A
6:20 PM63 °FPassing clouds.9 mph88%30.01 "HgN/A
5:50 PM63 °FPassing clouds.10 mph88%30.01 "HgN/A
5:20 PM64 °FPassing clouds.13 mph83%29.98 "HgN/A
4:50 PM64 °FPassing clouds.6 mph83%29.98 "HgN/A
4:20 PM64 °FPassing clouds.10 mph83%29.98 "HgN/A
3:50 PM64 °FPassing clouds.9 mph83%29.98 "HgN/A
2:50 PM64 °FScattered clouds.10 mph83%29.98 "HgN/A
2:20 PM64 °FScattered clouds.10 mph83%29.98 "HgN/A
1:50 PM64 °FScattered clouds.10 mph83%29.98 "HgN/A
1:20 PM64 °FScattered clouds.9 mph78%29.98 "Hg6 mi
12:50 PM64 °FScattered clouds.7 mph83%29.98 "HgN/A
12:20 PM64 °FScattered clouds.8 mph83%29.98 "HgN/A
11:50 AM63 °FScattered clouds.8 mph88%29.98 "HgN/A
11:20 AM63 °FScattered clouds.9 mph88%29.98 "HgN/A
10:50 AM63 °FScattered clouds.9 mph88%29.98 "HgN/A
10:20 AM63 °FScattered clouds.10 mph83%29.98 "HgN/A
9:50 AM63 °FScattered clouds.10 mph83%29.98 "HgN/A
9:20 AM63 °FScattered clouds.7 mph83%29.98 "HgN/A
8:50 AM61 °FScattered clouds.7 mph88%29.98 "HgN/A
8:20 AM59 °FScattered clouds.7 mph77%29.98 "HgN/A
7:50 AM59 °FScattered clouds.7 mph77%29.98 "HgN/A
7:20 AM59 °FScattered clouds.6 mph77%29.95 "HgN/A
6:50 AM59 °FPassing clouds.6 mph77%29.95 "HgN/A
5:50 AM59 °FPassing clouds.9 mph88%29.92 "HgN/A
4:50 AM61 °FPassing clouds.10 mph83%29.92 "HgN/A
4:20 AM61 °FPassing clouds.10 mph83%29.92 "HgN/A
3:50 AM61 °FPassing clouds.10 mph83%29.92 "HgN/A
3:20 AM61 °FPassing clouds.10 mph88%29.92 "HgN/A
2:50 AM61 °FPassing clouds.10 mph88%29.92 "HgN/A
2:20 AM61 °FPassing clouds.7 mph88%29.92 "HgN/A
1:50 AM61 °FPassing clouds.7 mph88%29.92 "HgN/A
1:20 AM61 °FPassing clouds.9 mph83%29.92 "HgN/A
12:50 AM61 °FPassing clouds.9 mph83%29.92 "HgN/A
12:20 AM59 °FPassing clouds.8 mph88%29.92 "HgN/A
11:50 PM
Sat, Feb 13
59 °FPassing clouds.8 mph88%29.92 "HgN/A
Weather by CustomWeather, © 2016

See weather overviewHow to use our weather pages